Tracking 26933 objects as of 5-Feb-2023
HD Live streaming from Space Station
objects crossing your sky now

MESHBED

Track MESHBED now!
10-day predictions


NORAD ID: 44806
Int'l Code: 2019-081C
Perigee: 428.7 km
Apogee: 437.4 km
Inclination: 97.4 °
Period: 93.1 minutes
Semi major axis: 6804 km
RCS: Unknown
Launch date: November 27, 2019
Source: United States (US)
Launch site: SRIHARIKOTA (SRI)
Your satellite tracking list
Your tracking list is empty




NASA's NSSDC Master Catalog

Two Line Element Set (TLE):
1 44806U 19081C   23035.76364137  .00077098  00000-0  15225-2 0  9999
2 44806  97.3707 106.5982 0006440 106.5841 253.6117 15.46859081177554
Source of the keplerian elements: AFSPC